Content
SEND FEEDBACK

Daily
Averages
Monthly
Summary
United States of America

ALEXANDRIA, SOUTH DAKOTA


Home > North America > United States > South Dakota
Elevation: 1338 feet     Latitude: 43 39N     Longitude: 097 47W

WEATHER
 
SELECT A DAY
Number of Records: 245,390;   Date Range: 1/1/95 - 12/19/14
 
SHARE

PRINT THIS DATA

[ ← Previous Day ]
WEATHER ALMANAC - JANUARY 31, 2013
[ Next Day → ]
[ °C ]   °F
Weather ElementAverageHighLow
Temperature-5 °F-2 °F (1:53 am)-7.6 °F (8:11 am)
Dewpoint-13.7 °F-11 °F (1:53 am)-15 °F (10:53 am)
Humidity66.4 %76 % (6:53 am)55 % (1:16 pm)
Barometer30.34 in30.49 in (7:53 pm)30.10 in (1:53 am)
Wind Speed18.2 mph26.5 mph (10:12 am)
Wind Gust35.7 mph (9:11 am)
Weather ElementAverage
Visibility7.8 mi
Wind DirectionNW (320.3 °)

Weather ElementTotal
Precipitation---
Heating Degree Days69.8 (Base 65)
Averaged from 37 records on January 31, 2013
WEATHER CONDITIONS BREAKOUT
WIND DIRECTION BREAKOUT
WEATHER BY HOUR - JANUARY 31, 2013
[ °C ]   °F
Local TimeTemperatureDewpointHumidityBarometerVisibilityWind DirectionWind SpeedGust SpeedPrecipitationEventsConditions
1:53 AM-2.0 °F-11.0 °F66 %30.10 in10.0 miNNW (330°)17.3 mphOvercast
2:53 AM-2.9 °F-11.9 °F65 %30.14 in10.0 miNNW (340°)13.8 mphOvercast
3:53 AM-2.9 °F-11.9 °F65 %30.14 in10.0 miNNW (340°)19.6 mphOvercast
4:53 AM-4.0 °F-11.9 °F69 %30.17 in10.0 miNNW (340°)18.4 mph25.3 mphOvercast
5:53 AM-5.1 °F-13.0 °F69 %30.22 in5.0 miNNW (340°)21.9 mph29.9 mph0.00 inSnowLight Snow
6:53 AM-5.1 °F-11.0 °F76 %30.25 in2.5 miNNW (340°)19.6 mph24.2 mph0.00 inOvercast
7:17 AM-5.8 °F-13.0 °F71 %30.16 in3.0 miNNW (330°)20.7 mph31.1 mph0.00 inOvercast
7:53 AM-6.0 °F-14.1 °F68 %30.30 in6.0 miNNW (340°)20.7 mph32.2 mph0.00 inHaze
8:02 AM-5.8 °F-14.8 °F65 %30.19 in10.0 miNNW (340°)17.3 mphOvercast
8:11 AM-7.6 °F-14.8 °F71 %30.20 in10.0 miNNW (340°)17.3 mphMostly Cloudy
8:20 AM-7.6 °F-14.8 °F71 %30.21 in10.0 miNNW (330°)19.6 mphMostly Cloudy
8:53 AM-6.0 °F-14.1 °F68 %30.35 in7.0 miNNW (330°)19.6 mphOvercast
9:11 AM-7.6 °F-14.8 °F71 %30.25 in2.0 miNNW (330°)25.3 mph35.7 mphHaze
9:23 AM-7.6 °F-14.8 °F71 %30.26 in5.0 miNNW (340°)20.7 mph31.1 mphHaze
9:45 AM-5.8 °F-13.0 °F71 %30.27 in1.5 miNW (320°)23.0 mph28.8 mph0.00 inOvercast
9:53 AM-7.1 °F-13.0 °F75 %30.39 in0.8 miNW (320°)24.2 mph0.00 in
10:01 AM-5.8 °F-14.8 °F65 %30.28 in1.5 miNNW (330°)25.3 mph0.00 inHaze
10:12 AM-7.6 °F-14.8 °F71 %30.29 in2.0 miNNW (330°)26.5 mph33.4 mph0.00 inHaze
10:53 AM-6.0 °F-15.0 °F65 %30.43 in4.0 miNW (320°)25.3 mph32.2 mph0.00 inHaze
11:53 AM-6.0 °F-15.0 °F65 %30.45 in10.0 miNW (320°)26.5 mphOvercast
12:53 PM-4.0 °F-15.0 °F59 %30.46 in10.0 miNNW (330°)24.2 mphMostly Cloudy
1:16 PM-2.2 °F-14.8 °F55 %30.34 in10.0 miNNW (330°)23.0 mph31.1 mphScattered Clouds
1:32 PM-4.0 °F-14.8 °F60 %30.34 in10.0 miNNW (330°)23.0 mphMostly Cloudy
1:53 PM-2.9 °F-13.0 °F62 %30.46 in10.0 miNW (310°)25.3 mphMostly Cloudy
2:23 PM-2.2 °F-13.0 °F60 %30.34 in10.0 miNW (320°)20.7 mphScattered Clouds
2:53 PM-4.0 °F-14.1 °F62 %30.47 in10.0 miNW (320°)18.4 mphClear
3:53 PM-2.9 °F-13.0 °F62 %30.47 in10.0 miNW (310°)16.1 mphPartly Cloudy
4:18 PM-2.2 °F-13.0 °F60 %30.36 in10.0 miNW (320°)16.1 mphMostly Cloudy
4:25 PM-2.2 °F-14.8 °F55 %30.35 in10.0 miNW (320°)17.3 mphScattered Clouds
4:53 PM-2.9 °F-14.1 °F59 %30.48 in10.0 miNW (320°)17.3 mph24.2 mphClear
5:53 PM-4.0 °F-13.0 °F65 %30.48 in10.0 miNW (320°)15.0 mphClear
6:53 PM-5.1 °F-14.1 °F65 %30.48 in10.0 miWNW (290°)6.9 mphClear
7:53 PM-6.0 °F-14.1 °F68 %30.49 in10.0 miWSW (250°)5.8 mphClear
8:53 PM-6.0 °F-14.1 °F68 %30.49 in10.0 miWest (270°)6.9 mphClear
9:53 PM-6.0 °F-13.0 °F72 %30.48 in10.0 miWest (280°)5.8 mphClear
10:53 PM-7.1 °F-13.0 °F75 %30.47 in10.0 miWest (280°)4.6 mphClear
11:53 PM-7.1 °F-14.1 °F72 %30.45 in10.0 miWNW (300°)3.5 mphClear
Hourly data recorded from KMHE, located miles away from Alexandria, South Dakota







STORIES FROM OUR PARTNERS